FW6726 Weather Reports


Display with metric or nautical units.
time (UTC)temp
F
wind
direction
speed
MPH
gust
MPH
rain 1hr
in
rain 24hr
in
rain mn
in
humidity
%
barometer
mb
20260508051456 63 104 0.0 0.0 0.00 0.00 0.00 76 1016.8
20260508050957 64 104 0.0 0.0 0.00 0.00 0.00 76 1016.7
20260508050456 64 104 0.0 1.0 0.00 0.00 0.00 75 1016.7
20260508045958 64 104 0.0 2.0 0.00 0.00 0.00 75 1016.8
20260508045456 64 104 0.0 3.0 0.00 0.00 0.00 75 1016.8
20260508044957 65 104 2.0 3.0 0.00 0.00 0.00 74 1016.8
20260508044931 65 78 0.0 1.0 0.00 0.00 0.00 74 1016.7
20260508044225 65 78 0.0 1.0 0.00 0.00 0.00 74 1016.6
20260508043455 65 78 0.0 1.0 0.00 0.00 0.00 74 1016.7
20260508042957 65 78 0.0 1.0 0.00 0.00 0.00 74 1016.6
20260508042455 65 78 0.0 1.0 0.00 0.00 0.00 74 1016.5
20260508041957 65 78 0.0 1.0 0.00 0.00 0.00 74 1016.5
20260508041455 65 78 0.0 0.0 0.00 0.00 0.00 73 1016.5
20260508040956 66 78 0.0 0.0 0.00 0.00 0.00 73 1016.4
20260508040715 66 78 0.0 0.0 0.00 0.00 0.00 73 1016.4
20260508035956 66 78 0.0 0.0 0.00 0.00 0.00 73 1016.3
20260508035454 66 78 0.0 0.0 0.00 0.00 0.00 72 1016.3
20260508034956 66 78 0.0 0.0 0.00 0.00 0.00 72 1016.3
20260508034454 66 78 0.0 0.0 0.00 0.00 0.00 71 1016.2
20260508033955 66 78 0.0 0.0 0.00 0.00 0.00 71 1016.2
20260508033454 67 78 0.0 0.0 0.00 0.00 0.00 71 1016.1
20260508032955 0 0.0 0.0 0.00 0.00 0.00 1016.1
20260508032451 67 78 0.0 2.0 0.00 0.00 0.00 70 1016.0
20260508032437 67 78 0.0 2.0 0.00 0.00 0.00 70 1016.1
20260508031450 68 78 0.0 0.0 0.00 0.00 0.00 69 1016.1
20260508030952 68 78 0.0 0.0 0.00 0.00 0.00 69 1016.1
20260508030451 68 78 0.0 0.0 0.00 0.00 0.00 69 1016.1
20260508030429 68 78 0.0 0.0 0.00 0.00 0.00 68 1016.1
20260508025707 69 78 0.0 0.0 0.00 0.00 0.00 68 1016.1
20260508024952 69 78 0.0 3.0 0.00 0.00 0.00 67 1016.0
20260508024451 69 78 0.0 4.0 0.00 0.00 0.00 66 1016.0
20260508023951 70 78 1.0 4.0 0.00 0.00 0.00 65 1015.9
20260508023450 70 78 0.0 0.0 0.00 0.00 0.00 64 1015.8
20260508023212 71 78 0.0 0.0 0.00 0.00 0.00 65 1016.0
20260508022450 71 78 0.0 0.0 0.00 0.00 0.00 65 1015.9
20260508021951 71 78 0.0 0.0 0.00 0.00 0.00 64 1015.9
20260508021449 72 78 0.0 0.0 0.00 0.00 0.00 66 1015.9
20260508020951 72 78 0.0 0.0 0.00 0.00 0.00 66 1015.9
20260508020715 72 78 0.0 0.0 0.00 0.00 0.00 65 1015.8
20260508015950 72 78 0.0 0.0 0.00 0.00 0.00 64 1015.9
20260508015449 71 78 0.0 2.0 0.00 0.00 0.00 65 1015.8
20260508014948 71 78 1.0 3.0 0.00 0.00 0.00 65 1015.9
20260508014713 71 78 0.0 3.0 0.00 0.00 0.00 65 1015.8
20260508013949 71 78 1.0 3.0 0.00 0.00 0.00 63 1015.8
20260508013450 71 78 0.0 0.0 0.00 0.00 0.00 64 1015.8
20260508012949 71 78 0.0 3.0 0.00 0.00 0.00 64 1015.8
20260508012449 71 78 0.0 3.0 0.00 0.00 0.00 64 1015.8
20260508011949 71 78 1.0 3.0 0.00 0.00 0.00 64 1015.9
20260508011448 70 78 0.0 2.0 0.00 0.00 0.00 64 1015.9
20260508010948 71 78 2.0 2.0 0.00 0.00 0.00 63 1016.0
20260508010715 71 78 0.0 4.0 0.00 0.00 0.00 63 1016.0
20260508005947 71 78 2.0 4.0 0.00 0.00 0.00 63 1016.0
20260508005447 71 79 2.0 4.0 0.00 0.00 0.00 64 1016.1
20260508004947 71 79 0.0 4.0 0.00 0.00 0.00 62 1016.1
20260508004447 71 79 2.0 4.0 0.00 0.00 0.00 63 1016.0
20260508003948 71 79 2.0 4.0 0.00 0.00 0.00 62 1016.1
20260508003447 71 79 2.0 4.0 0.00 0.00 0.00 61 1016.1
20260508002946 72 79 3.0 4.0 0.00 0.00 0.00 58 1016.2
20260508002446 72 79 2.0 6.0 0.00 0.00 0.00 58 1016.3
20260508001947 73 79 3.0 6.0 0.00 0.00 0.00 59 1016.2
20260508001449 73 83 2.0 7.0 0.00 0.00 0.00 60 1016.2
20260508000948 73 87 4.0 7.0 0.00 0.00 0.00 57 1016.2
20260508000712 74 69 5.0 6.0 0.00 0.00 0.00 57 1016.3
20260507235947 74 89 3.0 6.0 0.00 0.00 0.00 57 1016.3
20260507235449 74 79 4.0 6.0 0.00 0.00 0.00 55 1016.4
20260507234947 74 79 4.0 6.0 0.00 0.00 0.00 55 1016.5
20260507234448 74 89 3.0 9.0 0.00 0.00 0.00 55 1016.5
20260507233949 74 93 5.0 9.0 0.00 0.00 0.00 54 1016.5
20260507233937 74 66 4.0 7.0 0.00 0.00 0.00 54 1016.6
20260507232946 75 87 4.0 7.0 0.00 0.00 0.00 52 1016.6
20260507232446 76 76 4.0 7.0 0.00 0.00 0.00 52 1016.6
20260507232205 76 127 2.0 4.0 0.00 0.00 0.00 52 1016.6
20260507231447 76 118 2.0 5.0 0.00 0.00 0.00 52 1016.7
20260507230945 76 102 2.0 6.0 0.00 0.00 0.00 53 1016.8
20260507230446 76 124 2.0 6.0 0.00 0.00 0.00 53 1016.8
20260507225945 76 130 2.0 5.0 0.00 0.00 0.00 53 1016.9
20260507225446 76 116 2.0 5.0 0.00 0.00 0.00 54 1017.0
20260507224945 76 137 3.0 5.0 0.00 0.00 0.00 55 1017.0
20260507224711 76 87 3.0 5.0 0.00 0.00 0.00 54 1017.0
20260507223945 75 131 2.0 6.0 0.00 0.00 0.00 56 1017.1
20260507223704 75 116 2.0 6.0 0.00 0.00 0.00 55 1017.2
20260507222945 76 87 3.0 5.0 0.00 0.00 0.00 55 1017.3
20260507222932 76 111 3.0 7.0 0.00 0.00 0.00 55 1017.3
20260507221946 76 116 2.0 7.0 0.00 0.00 0.00 55 1017.4
20260507221446 75 94 2.0 5.0 0.00 0.00 0.00 55 1017.5
20260507220945 76 90 3.0 7.0 0.00 0.00 0.00 56 1017.6
20260507220446 75 97 3.0 7.0 0.00 0.00 0.00 57 1017.7
20260507215943 75 76 4.0 6.0 0.00 0.00 0.00 56 1017.7
20260507215443 75 94 3.0 6.0 0.00 0.00 0.00 57 1017.8
20260507214944 76 123 4.0 6.0 0.00 0.00 0.00 56 1017.8
20260507214443 76 99 3.0 7.0 0.00 0.00 0.00 57 1017.8
20260507213943 75 93 3.0 7.0 0.00 0.00 0.00 57 1017.9
20260507213705 76 86 3.0 7.0 0.00 0.00 0.00 56 1017.8
20260507212935 75 148 3.0 6.0 0.00 0.00 0.00 56 1018.1
20260507212435 75 114 2.0 6.0 0.00 0.00 0.00 57 1018.1
20260507211936 75 97 4.0 6.0 0.00 0.00 0.00 57 1018.1
20260507211436 75 133 3.0 6.0 0.00 0.00 0.00 55 1018.3
20260507210936 75 147 3.0 6.0 0.00 0.00 0.00 56 1018.3
20260507210433 76 97 4.0 6.0 0.00 0.00 0.00 56 1018.4
20260507205931 76 120 3.0 7.0 0.00 0.00 0.00 57 1018.4
20260507205431 76 140 3.0 7.0 0.00 0.00 0.00 56 1018.5
20260507205152 76 96 3.0 9.0 0.00 0.00 0.00 56 1018.6
20260507204432 76 104 3.0 9.0 0.00 0.00 0.00 56 1018.5
20260507203931 76 94 2.0 7.0 0.00 0.00 0.00 56 1018.6
20260507203429 76 128 2.0 6.0 0.00 0.00 0.00 57 1018.6
20260507202927 76 107 2.0 7.0 0.00 0.00 0.00 55 1018.6
20260507202422 76 102 2.0 7.0 0.00 0.00 0.00 56 1018.7
20260507201922 76 99 4.0 6.0 0.00 0.00 0.00 56 1018.6
20260507201420 76 118 2.0 5.0 0.00 0.00 0.00 57 1018.6
20260507200915 76 130 3.0 5.0 0.00 0.00 0.00 58 1018.7
20260507200410 75 128 3.0 5.0 0.00 0.00 0.00 58 1018.7
20260507195910 75 103 2.0 5.0 0.00 0.00 0.00 58 1018.7
20260507195410 75 137 3.0 5.0 0.00 0.00 0.00 57 1018.8
20260507195131 75 100 3.0 6.0 0.00 0.00 0.00 58 1018.8
20260507194410 75 102 3.0 7.0 0.00 0.00 0.00 58 1018.8
20260507193903 74 89 4.0 7.0 0.00 0.00 0.00 58 1018.8
20260507193403 74 103 4.0 7.0 0.00 0.00 0.00 58 1018.9
20260507192901 74 110 4.0 7.0 0.00 0.00 0.00 58 1018.9
20260507192404 74 113 2.0 5.0 0.00 0.00 0.00 60 1018.9
20260507191903 74 130 2.0 6.0 0.00 0.00 0.00 60 1019.0
20260507191403 74 135 2.0 7.0 0.00 0.00 0.00 60 1019.0
20260507190902 73 123 3.0 7.0 0.00 0.00 0.00 60 1019.1
20260507190357 73 131 3.0 5.0 0.00 0.00 0.00 61 1019.1
20260507185856 73 128 3.0 5.0 0.00 0.00 0.00 60 1019.1
20260507185357 73 128 2.0 6.0 0.00 0.00 0.00 61 1019.2
20260507185054 73 107 1.0 6.0 0.00 0.00 0.00 62 1019.2
20260507185043 73 103 3.0 6.0 0.00 0.00 0.00 62 1019.1
20260507183845 72 89 3.0 6.0 0.00 0.00 0.00 63 1019.3
20260507183340 72 107 3.0 6.0 0.00 0.00 0.00 62 1019.2
20260507182841 72 97 3.0 6.0 0.00 0.00 0.00 63 1019.3
20260507182341 72 131 2.0 6.0 0.00 0.00 0.00 64 1019.2
20260507181839 71 116 2.0 5.0 0.00 0.00 0.00 63 1019.2
20260507181341 71 111 2.0 5.0 0.00 0.00 0.00 63 1019.2
20260507180839 71 116 3.0 5.0 0.00 0.00 0.00 63 1019.1
20260507180340 71 118 2.0 5.0 0.00 0.00 0.00 64 1019.1
20260507175839 71 97 2.0 6.0 0.00 0.00 0.00 65 1019.0
20260507175339 71 97 3.0 6.0 0.00 0.00 0.00 64 1019.1
20260507175104 71 99 2.0 5.0 0.00 0.00 0.00 65 1019.1
20260507174338 71 109 2.0 5.0 0.00 0.00 0.00 65 1019.1
20260507173839 71 97 2.0 5.0 0.00 0.00 0.00 65 1019.1
20260507173830 70 102 2.0 5.0 0.00 0.00 0.00 66 1019.1
20260507173104 70 99 2.0 5.0 0.00 0.00 0.00 65 1019.1
20260507172339 70 99 3.0 5.0 0.00 0.00 0.00 66 1019.2
20260507171838 70 120 2.0 4.0 0.00 0.00 0.00 67 1019.2
20260507171338 70 110 2.0 4.0 0.00 0.00 0.00 66 1019.1
20260507170839 70 102 2.0 4.0 0.00 0.00 0.00 67 1019.1
20260507170335 70 107 3.0 6.0 0.00 0.00 0.00 67 1019.0
20260507165838 69 107 2.0 6.0 0.00 0.00 0.00 67 1019.0
20260507165337 69 110 3.0 6.0 0.00 0.00 0.00 67 1019.0
20260507164837 69 117 3.0 6.0 0.00 0.00 0.00 69 1019.0
20260507164337 69 89 4.0 6.0 0.00 0.00 0.00 69 1019.1
20260507163837 69 102 3.0 4.0 0.00 0.00 0.00 70 1019.0
20260507163337 68 96 1.0 7.0 0.00 0.00 0.00 71 1019.1
20260507162837 67 87 2.0 7.0 0.00 0.00 0.00 71 1019.1
20260507162338 67 89 3.0 7.0 0.00 0.00 0.00 72 1019.1
20260507161837 67 90 4.0 6.0 0.00 0.00 0.00 73 1019.1
20260507161337 67 83 4.0 6.0 0.00 0.00 0.00 73 1019.1
20260507160836 66 85 2.0 4.0 0.00 0.00 0.00 75 1019.0
20260507160337 66 80 2.0 5.0 0.00 0.00 0.00 75 1019.1
20260507155838 66 89 4.0 6.0 0.00 0.00 0.00 75 1019.2
20260507155557 65 83 4.0 6.0 0.00 0.00 0.00 75 1019.2
20260507154837 65 103 2.0 6.0 0.00 0.00 0.00 77 1019.1
20260507154336 65 100 3.0 6.0 0.00 0.00 0.00 77 1019.1
20260507153836 65 90 2.0 6.0 0.00 0.00 0.00 77 1019.1
20260507153600 64 83 5.0 6.0 0.00 0.00 0.00 78 1019.1
20260507152832 64 86 0.0 6.0 0.00 0.00 0.00 79 1019.1
20260507152331 64 94 2.0 6.0 0.00 0.00 0.00 79 1019.0
20260507151831 63 85 4.0 5.0 0.00 0.00 0.00 78 1019.0
20260507151331 63 76 4.0 5.0 0.00 0.00 0.00 80 1018.9
20260507150831 62 78 2.0 4.0 0.00 0.00 0.00 80 1019.0
20260507150330 62 75 0.0 4.0 0.00 0.00 0.00 81 1018.9
20260507145830 62 75 1.0 5.0 0.00 0.00 0.00 81 1018.9
20260507145331 62 75 4.0 5.0 0.00 0.00 0.00 83 1018.9
20260507144828 61 73 0.0 0.0 0.00 0.00 0.00 84 1018.8
20260507144328 61 73 0.0 0.0 0.00 0.00 0.00 84 1018.8
20260507143802 60 73 0.0 0.0 0.00 0.00 0.00 85 1018.7
20260507143303 60 73 0.0 0.0 0.00 0.00 0.00 84 1018.7
20260507142803 59 73 0.0 0.0 0.00 0.00 0.00 84 1018.7
20260507142306 59 73 0.0 0.0 0.00 0.00 0.00 84 1018.6
20260507142025 59 73 0.0 0.0 0.00 0.00 0.00 84 1018.5
20260507141302 58 73 0.0 0.0 0.00 0.00 0.00 84 1018.6
20260507140753 58 73 0.0 0.0 0.00 0.00 0.00 84 1018.5
20260507140249 58 73 0.0 0.0 0.00 0.00 0.00 83 1018.4
20260507135744 58 73 0.0 0.0 0.00 0.00 0.00 83 1018.3
20260507135244 58 73 0.0 0.0 0.00 0.00 0.00 83 1018.2
20260507134743 58 73 0.0 1.0 0.00 0.00 0.00 84 1018.2
20260507134242 58 73 0.0 2.0 0.00 0.00 0.00 84 1018.1
20260507133742 58 73 1.0 2.0 0.00 0.00 0.00 84 1018.1
20260507133239 58 73 0.0 1.0 0.00 0.00 0.00 84 1017.9
20260507132740 58 73 0.0 0.0 0.00 0.00 0.00 85 1018.1
20260507132238 58 73 0.0 0.0 0.00 0.00 0.00 85 1018.1
20260507131735 58 73 0.0 0.0 0.00 0.00 0.00 85 1017.9
20260507131233 58 73 0.0 0.0 0.00 0.00 0.00 85 1017.9
20260507130733 58 73 0.0 0.0 0.00 0.00 0.00 85 1017.8
20260507130233 58 73 0.0 0.0 0.00 0.00 0.00 84 1017.9
20260507125733 58 73 0.0 0.0 0.00 0.00 0.00 84 1017.8
20260507125233 58 73 0.0 0.0 0.00 0.00 0.00 84 1017.8
20260507124734 58 73 0.0 0.0 0.00 0.00 0.00 85 1017.8
20260507124233 58 73 0.0 0.0 0.00 0.00 0.00 85 1017.7
20260507123734 58 73 0.0 0.0 0.00 0.00 0.00 85 1017.7
20260507123232 57 73 0.0 0.0 0.00 0.00 0.00 86 1017.7
20260507122733 57 73 0.0 0.0 0.00 0.00 0.00 86 1017.8
20260507122458 57 73 0.0 0.0 0.00 0.00 0.00 86 1017.8
20260507121731 57 73 0.0 0.0 0.00 0.00 0.00 86 1017.9
20260507121452 57 73 0.0 0.0 0.00 0.00 0.00 87 1017.9
20260507120731 57 73 0.0 1.0 0.00 0.00 0.00 87 1017.9
20260507120230 57 73 0.0 1.0 0.00 0.00 0.00 87 1017.8
20260507115731 56 73 0.0 2.0 0.00 0.00 0.00 87 1017.8
20260507115229 56 73 1.0 2.0 0.00 0.00 0.00 87 1017.9
20260507114730 56 73 1.0 2.0 0.00 0.00 0.00 87 1017.9
20260507114230 56 73 0.0 0.0 0.00 0.00 0.00 87 1017.9
20260507113731 56 73 0.0 0.0 0.00 0.00 0.00 87 1017.9
20260507113229 56 73 0.0 0.0 0.00 0.00 0.00 87 1018.1
20260507112731 56 73 0.0 0.0 0.00 0.00 0.00 87 1017.9
20260507112449 56 73 0.0 0.0 0.00 0.00 0.00 87 1018.1
20260507111730 56 73 0.0 0.0 0.00 0.00 0.00 87 1017.9
20260507111229 56 73 0.0 0.0 0.00 0.00 0.00 86 1017.9
20260507110730 57 73 0.0 0.0 0.00 0.00 0.00 86 1017.9
20260507110230 57 73 0.0 0.0 0.00 0.00 0.00 86 1018.1
20260507105729 57 73 0.0 0.0 0.00 0.00 0.00 87 1017.9
20260507105713 57 73 0.0 0.0 0.00 0.00 0.00 87 1018.1
20260507104728 57 73 0.0 0.0 0.00 0.00 0.00 87 1018.1
20260507104229 57 73 0.0 0.0 0.00 0.00 0.00 87 1018.2
20260507103728 57 73 0.0 0.0 0.00 0.00 0.00 87 1018.2
20260507103228 57 73 0.0 2.0 0.00 0.00 0.00 86 1018.3
20260507102727 57 73 0.0 3.0 0.00 0.00 0.00 86 1018.3
20260507102229 57 73 2.0 3.0 0.00 0.00 0.00 86 1018.3
20260507101728 57 85 2.0 3.0 0.00 0.00 0.00 86 1018.3
20260507101228 57 85 1.0 3.0 0.00 0.00 0.00 86 1018.3
20260507100727 57 85 2.0 3.0 0.00 0.00 0.00 85 1018.3
20260507100228 57 85 2.0 4.0 0.00 0.00 0.00 85 1018.3
20260507095948 57 85 3.0 4.0 0.00 0.00 0.00 85 1018.2
20260507095444 57 106 3.0 4.0 0.00 0.00 0.00 84 1018.3
20260507094726 57 106 1.0 1.0 0.00 0.00 0.00 84 1018.2
20260507094229 57 106 0.0 0.0 0.00 0.00 0.00 84 1018.3
20260507093728 58 106 0.0 0.0 0.00 0.00 0.00 84 1018.3
20260507093449 58 106 0.0 0.0 0.00 0.00 0.00 83 1018.3
20260507092954 58 106 0.0 0.0 0.00 0.00 0.00 83 1018.4
20260507092453 58 106 0.0 0.0 0.00 0.00 0.00 83 1018.5
20260507091728 58 106 0.0 0.0 0.00 0.00 0.00 83 1018.5
20260507091229 58 106 0.0 3.0 0.00 0.00 0.00 83 1018.6
20260507090951 58 106 1.0 3.0 0.00 0.00 0.00 82 1018.5
20260507090452 58 106 2.0 3.0 0.00 0.00 0.00 82 1018.5
20260507085727 58 106 1.0 2.0 0.00 0.00 0.00 81 1018.6
20260507085228 59 106 0.0 2.0 0.00 0.00 0.00 80 1018.6
20260507085203 59 106 0.0 3.0 0.00 0.00 0.00 80 1018.6
20260507084229 59 106 0.0 4.0 0.00 0.00 0.00 80 1018.6
20260507083726 60 106 3.0 4.0 0.00 0.00 0.00 80 1018.7
20260507083228 60 106 1.0 3.0 0.00 0.00 0.00 80 1018.7
20260507082726 60 106 1.0 3.0 0.00 0.00 0.00 80 1018.8
20260507082227 60 106 2.0 3.0 0.00 0.00 0.00 80 1018.8
20260507081724 59 106 2.0 2.0 0.00 0.00 0.00 81 1018.9
20260507081226 59 106 0.0 0.0 0.00 0.00 0.00 81 1018.9
20260507080725 59 106 0.0 0.0 0.00 0.00 0.00 81 1018.9
20260507080447 59 106 0.0 0.0 0.00 0.00 0.00 81 1018.9
20260507075725 59 106 0.0 0.0 0.00 0.00 0.00 81 1018.8
20260507075225 59 106 0.0 0.0 0.00 0.00 0.00 81 1018.9
20260507074724 59 106 0.0 0.0 0.00 0.00 0.00 81 1018.8
20260507074225 59 106 0.0 0.0 0.00 0.00 0.00 81 1018.9
20260507073944 59 106 0.0 0.0 0.00 0.00 0.00 81 1018.9
20260507073225 59 106 0.0 0.0 0.00 0.00 0.00 82 1018.8
20260507072725 59 106 0.0 0.0 0.00 0.00 0.00 82 1018.9
20260507072226 59 106 0.0 0.0 0.00 0.00 0.00 82 1018.8
20260507071724 59 106 0.0 0.0 0.00 0.00 0.00 82 1018.7
20260507071225 59 106 0.0 0.0 0.00 0.00 0.00 81 1018.7
20260507071214 59 106 0.0 0.0 0.00 0.00 0.00 81 1018.7
20260507070224 59 106 0.0 0.0 0.00 0.00 0.00 80 1018.8
20260507065723 59 106 0.0 0.0 0.00 0.00 0.00 80 1018.7
20260507065221 59 106 0.0 0.0 0.00 0.00 0.00 79 1018.8
20260507065215 59 106 0.0 2.0 0.00 0.00 0.00 79 1018.7
20260507064225 60 106 0.0 3.0 0.00 0.00 0.00 78 1018.9
20260507063724 60 106 2.0 3.0 0.00 0.00 0.00 77 1018.9
20260507063224 61 104 1.0 3.0 0.00 0.00 0.00 76 1018.9
20260507062722 61 85 0.0 2.0 0.00 0.00 0.00 76 1018.8
20260507062223 61 85 2.0 2.0 0.00 0.00 0.00 76 1018.7
20260507061722 62 85 0.0 3.0 0.00 0.00 0.00 75 1018.8
20260507061223 62 85 1.0 3.0 0.00 0.00 0.00 75 1018.7
20260507060722 62 85 2.0 3.0 0.00 0.00 0.00 75 1018.7
20260507060225 62 85 0.0 2.0 0.00 0.00 0.00 75 1018.7
20260507055723 62 85 2.0 2.0 0.00 0.00 0.00 75 1018.7
20260507055224 62 85 0.0 2.0 0.00 0.00 0.00 75 1018.7
20260507054723 62 85 2.0 2.0 0.00 0.00 0.00 75 1018.6
20260507054223 62 85 0.0 0.0 0.00 0.00 0.00 75 1018.7
20260507053723 62 85 0.0 2.0 0.00 0.00 0.00 75 1018.7
20260507053223 62 85 0.0 2.0 0.00 0.00 0.00 75 1018.8
20260507052939 62 85 2.0 3.0 0.00 0.00 0.00 75 1018.8